TRA2605 EHEH-LGSA

Flight info

Callsign TRA2605
Flight time N/A
Altitude 35000
Route LNO N852 DIK M150 GEBDA/N0448F340 Y173 PABLA/N0450F350 Z721 UTABA L607 ELMEM N606 OTRES T307 DIRAB DCT ROTAR DCT MADOS DCT EBELA DCT PITAS UN732 KRK UA14 ARA UL612 TRL UJ65 SOKRI
Aircraft B738/M-SDE2E3FGHIJ1RWXYZ/LB1

Departure

Time 2026-05-06 13:46
Airport Eindhoven Airport (EHEH)

Arrival

Time N/A
Airport Chania International Airport (LGSA)
Time Latitude Longitude Altitude Speed Heading
2026-05-06 12:46 51.45648 5.38823 74 ft 0 kts 125°
2026-05-06 13:33 51.45660 5.38798 67 ft 3 kts 131°
2026-05-06 13:33 51.45673 5.38772 74 ft 3 kts 121°
2026-05-06 13:33 51.45681 5.38745 74 ft 3 kts 104°
2026-05-06 13:33 51.45682 5.38717 74 ft 3 kts 61°
2026-05-06 13:34 51.45669 5.38695 74 ft 3 kts 33°
2026-05-06 13:34 51.45661 5.38687 74 ft 1 kts 35°
2026-05-06 13:37 51.45667 5.38693 68 ft 4 kts 35°
2026-05-06 13:38 51.45705 5.38737 72 ft 8 kts 35°
2026-05-06 13:38 51.45753 5.38784 72 ft 8 kts 17°
2026-05-06 13:38 51.45801 5.38754 67 ft 8 kts 315°
2026-05-06 13:38 51.45822 5.38710 74 ft 0 kts 305°
2026-05-06 13:39 51.45825 5.38704 67 ft 3 kts 305°
2026-05-06 13:39 51.45855 5.38636 69 ft 10 kts 305°
2026-05-06 13:39 51.45895 5.38545 70 ft 10 kts 306°
2026-05-06 13:40 51.45935 5.38456 74 ft 10 kts 307°
2026-05-06 13:40 51.45976 5.38367 75 ft 10 kts 306°
2026-05-06 13:40 51.45981 5.38263 67 ft 10 kts 232°
2026-05-06 13:40 51.45926 5.38196 74 ft 11 kts 214°
2026-05-06 13:41 51.45853 5.38112 66 ft 16 kts 215°
2026-05-06 13:41 51.45746 5.37992 72 ft 22 kts 215°
2026-05-06 13:41 51.45611 5.37841 74 ft 24 kts 215°
2026-05-06 13:41 51.45477 5.37692 71 ft 23 kts 215°
2026-05-06 13:42 51.45349 5.37547 74 ft 22 kts 214°
2026-05-06 13:42 51.45224 5.37406 72 ft 22 kts 215°
2026-05-06 13:42 51.45103 5.37271 74 ft 21 kts 214°
2026-05-06 13:42 51.44984 5.37142 74 ft 20 kts 216°
2026-05-06 13:43 51.44871 5.37011 68 ft 20 kts 215°
2026-05-06 13:43 51.44760 5.36887 73 ft 19 kts 214°
2026-05-06 13:43 51.44653 5.36768 74 ft 18 kts 215°
2026-05-06 13:43 51.44549 5.36652 74 ft 18 kts 214°
2026-05-06 13:44 51.44450 5.36540 73 ft 17 kts 214°
2026-05-06 13:44 51.44353 5.36435 72 ft 17 kts 214°
2026-05-06 13:44 51.44261 5.36327 74 ft 16 kts 213°
2026-05-06 13:44 51.44184 5.36271 74 ft 10 kts 170°
2026-05-06 13:45 51.44150 5.36316 74 ft 5 kts 129°
2026-05-06 13:45 51.44130 5.36460 74 ft 7 kts 39°
2026-05-06 13:45 51.44132 5.36462 74 ft 0 kts 35°
2026-05-06 13:46 51.44268 5.36618 74 ft 60 kts 35°
2026-05-06 13:46 51.44804 5.37219 66 ft 126 kts 35°
2026-05-06 13:46 51.45667 5.38172 232 ft 163 kts 33°
2026-05-06 13:46 51.46580 5.39214 991 ft 168 kts 34°
2026-05-06 13:47 51.47560 5.40294 1671 ft 173 kts 32°
2026-05-06 13:47 51.48607 5.41374 2239 ft 189 kts 31°
2026-05-06 13:47 51.49761 5.42547 2630 ft 205 kts 32°
2026-05-06 13:47 51.50970 5.43867 3106 ft 215 kts 40°
2026-05-06 13:48 51.51889 5.45769 3757 ft 222 kts 62°
2026-05-06 13:48 51.52334 5.48233 4283 ft 238 kts 83°
2026-05-06 13:48 51.52135 5.50802 5265 ft 231 kts 105°
2026-05-06 13:48 51.51594 5.53259 6028 ft 235 kts 108°
2026-05-06 13:49 51.51017 5.55732 6713 ft 239 kts 108°
2026-05-06 13:49 51.50429 5.58244 7406 ft 242 kts 108°
2026-05-06 13:49 51.49814 5.60853 7765 ft 262 kts 108°
2026-05-06 13:49 51.49143 5.63694 8158 ft 278 kts 109°
2026-05-06 13:50 51.48269 5.66497 8813 ft 286 kts 125°
2026-05-06 13:50 51.46740 5.68562 9502 ft 294 kts 151°
2026-05-06 13:50 51.44903 5.70052 10215 ft 299 kts 151°
2026-05-06 13:50 51.43008 5.71686 10457 ft 321 kts 149°
2026-05-06 13:51 51.41011 5.73549 10646 ft 342 kts 148°
2026-05-06 13:51 51.38948 5.75587 11111 ft 353 kts 147°
2026-05-06 13:51 51.36837 5.77549 11758 ft 358 kts 156°
2026-05-06 13:51 51.34412 5.78634 12477 ft 360 kts 174°
2026-05-06 13:52 51.31946 5.78639 13214 ft 360 kts 185°
2026-05-06 13:52 51.29433 5.78331 13892 ft 363 kts 185°
2026-05-06 13:52 51.26907 5.78027 14552 ft 365 kts 185°
2026-05-06 13:52 51.24365 5.77732 15227 ft 367 kts 185°
2026-05-06 13:53 51.21814 5.77449 15894 ft 368 kts 185°
2026-05-06 13:53 51.19249 5.77172 16545 ft 370 kts 185°
2026-05-06 13:53 51.16671 5.76900 17162 ft 372 kts 185°
2026-05-06 13:53 51.14080 5.76631 17738 ft 375 kts 185°
2026-05-06 13:54 51.11473 5.76362 18354 ft 376 kts 185°
2026-05-06 13:54 51.08852 5.76093 18914 ft 378 kts 185°
2026-05-06 13:54 51.06213 5.75823 19416 ft 382 kts 185°
2026-05-06 13:54 51.03549 5.75551 19914 ft 385 kts 185°
2026-05-06 13:55 51.00861 5.75276 20435 ft 388 kts 185°
2026-05-06 13:55 50.98161 5.75000 20927 ft 391 kts 185°
2026-05-06 13:55 50.95442 5.74723 21388 ft 394 kts 185°
2026-05-06 13:55 50.92698 5.74444 21856 ft 396 kts 185°
2026-05-06 13:56 50.89938 5.74163 22334 ft 398 kts 185°
2026-05-06 13:56 50.87166 5.73882 22797 ft 401 kts 185°
2026-05-06 13:56 50.85454 5.73709 23064 ft 402 kts 185°
2026-05-06 13:57 50.84096 5.73571 23273 ft 404 kts 185°
2026-05-06 13:57 50.81284 5.73286 23696 ft 406 kts 185°
2026-05-06 13:58 50.78457 5.72999 24125 ft 408 kts 185°
2026-05-06 13:58 50.75613 5.72712 24525 ft 410 kts 185°
2026-05-06 13:58 50.72760 5.72424 24913 ft 413 kts 185°
2026-05-06 13:58 50.69877 5.72134 25307 ft 414 kts 185°
2026-05-06 13:59 50.66997 5.71843 25684 ft 416 kts 185°
2026-05-06 13:59 50.64096 5.71550 26056 ft 418 kts 185°
2026-05-06 13:59 50.61182 5.71350 26390 ft 422 kts 179°
2026-05-06 13:59 50.58300 5.72063 26612 ft 430 kts 165°
2026-05-06 14:00 50.55505 5.73827 26910 ft 435 kts 154°
2026-05-06 14:00 50.52897 5.76300 27258 ft 438 kts 150°
2026-05-06 14:00 50.50315 5.78851 27602 ft 439 kts 150°
2026-05-06 14:00 50.47721 5.81394 27897 ft 440 kts 150°
2026-05-06 14:01 50.45110 5.83929 28141 ft 443 kts 151°
2026-05-06 14:01 50.42477 5.86468 28442 ft 445 kts 151°
2026-05-06 14:01 50.39834 5.89002 28730 ft 446 kts 151°
2026-05-06 14:01 50.37181 5.91537 29004 ft 447 kts 151°
2026-05-06 14:02 50.34519 5.94073 29269 ft 448 kts 151°
2026-05-06 14:02 50.31861 5.96605 29587 ft 448 kts 151°
2026-05-06 14:02 50.29196 5.99139 29927 ft 447 kts 151°
2026-05-06 14:02 50.26546 6.01655 30305 ft 445 kts 151°
2026-05-06 14:03 50.23905 6.04159 30661 ft 443 kts 152°
2026-05-06 14:03 50.21273 6.06651 30992 ft 442 kts 152°
2026-05-06 14:03 50.18641 6.09140 31316 ft 441 kts 152°
2026-05-06 14:03 50.16017 6.11619 31592 ft 441 kts 152°
2026-05-06 14:04 50.13392 6.14095 31894 ft 440 kts 152°
2026-05-06 14:04 50.10776 6.16560 32218 ft 438 kts 152°
2026-05-06 14:04 50.08165 6.19016 32488 ft 438 kts 152°
2026-05-06 14:04 50.05553 6.21470 32753 ft 438 kts 152°
2026-05-06 14:05 50.02953 6.23911 33028 ft 437 kts 152°
2026-05-06 14:05 50.00349 6.26352 33302 ft 436 kts 152°
2026-05-06 14:05 49.97757 6.28778 33566 ft 435 kts 152°
2026-05-06 14:05 49.95167 6.31202 33850 ft 434 kts 152°
2026-05-06 14:06 49.92580 6.33619 34104 ft 433 kts 152°
2026-05-06 14:06 49.90000 6.36024 34325 ft 433 kts 152°
2026-05-06 14:06 49.87414 6.38432 34508 ft 433 kts 152°
2026-05-06 14:06 49.84832 6.40833 34684 ft 434 kts 152°
2026-05-06 14:07 49.82244 6.43239 34795 ft 435 kts 152°
2026-05-06 14:07 49.79631 6.45664 34800 ft 439 kts 152°
2026-05-06 14:07 49.74409 6.50676 34809 ft 448 kts 146°
2026-05-06 14:08 49.69942 6.57530 34812 ft 459 kts 131°
2026-05-06 14:08 49.66072 6.65412 34820 ft 461 kts 131°
2026-05-06 14:09 49.62206 6.73320 34810 ft 462 kts 131°
2026-05-06 14:09 49.58317 6.81153 34803 ft 463 kts 132°
2026-05-06 14:10 49.54388 6.88996 34807 ft 462 kts 132°
2026-05-06 14:10 49.50461 6.96801 34797 ft 460 kts 132°
2026-05-06 14:11 49.46549 7.04552 34807 ft 458 kts 132°
2026-05-06 14:11 49.42640 7.12276 34794 ft 457 kts 133°
2026-05-06 14:12 49.38741 7.19961 34805 ft 456 kts 133°
2026-05-06 14:12 49.34832 7.27641 34790 ft 456 kts 133°
2026-05-06 14:13 49.30930 7.35290 34796 ft 455 kts 133°
2026-05-06 14:13 49.27016 7.42934 34786 ft 454 kts 133°
2026-05-06 14:14 49.23133 7.50497 34789 ft 454 kts 133°
2026-05-06 14:14 49.19223 7.58093 34788 ft 455 kts 133°
2026-05-06 14:15 49.15306 7.65678 34786 ft 455 kts 134°
2026-05-06 14:15 49.11379 7.73264 34793 ft 455 kts 134°
2026-05-06 14:16 49.07449 7.80835 34785 ft 455 kts 134°
2026-05-06 14:16 49.03513 7.88395 34794 ft 455 kts 134°
2026-05-06 14:17 48.99566 7.95956 34800 ft 456 kts 134°
2026-05-06 14:17 48.95825 8.03101 34794 ft 456 kts 135°
2026-05-06 14:18 48.91868 8.10639 34800 ft 456 kts 135°
2026-05-06 14:18 48.87905 8.18168 34801 ft 456 kts 135°
2026-05-06 14:19 48.83933 8.25692 34809 ft 456 kts 135°
2026-05-06 14:19 48.79960 8.33198 34806 ft 456 kts 135°
2026-05-06 14:20 48.76098 8.40881 34804 ft 459 kts 132°
2026-05-06 14:20 48.72404 8.48784 34805 ft 460 kts 131°
2026-05-06 14:21 48.68731 8.56641 34799 ft 460 kts 132°
2026-05-06 14:21 48.65012 8.64499 34810 ft 460 kts 132°
2026-05-06 14:22 48.61271 8.72341 34818 ft 459 kts 133°
2026-05-06 14:22 48.57528 8.80160 34806 ft 459 kts 133°
2026-05-06 14:23 48.53777 8.87976 34808 ft 460 kts 133°
2026-05-06 14:23 48.50020 8.95783 34810 ft 460 kts 133°
2026-05-06 14:24 48.46261 9.03572 34801 ft 460 kts 133°
2026-05-06 14:24 48.42492 9.11358 34810 ft 460 kts 133°
2026-05-06 14:25 48.38723 9.19124 34793 ft 460 kts 133°
2026-05-06 14:25 48.34948 9.26879 34808 ft 459 kts 133°
2026-05-06 14:26 48.31166 9.34630 34801 ft 460 kts 134°
2026-05-06 14:26 48.27382 9.42360 34790 ft 460 kts 134°
2026-05-06 14:27 48.23012 9.49069 34789 ft 441 kts 152°
2026-05-06 14:27 48.18000 9.54346 34792 ft 439 kts 153°
2026-05-06 14:28 48.12984 9.59579 34791 ft 440 kts 152°
2026-05-06 14:28 48.07978 9.64852 34784 ft 440 kts 152°
2026-05-06 14:29 48.03880 9.69189 34792 ft 441 kts 152°
2026-05-06 14:29 47.99432 9.73896 34787 ft 441 kts 152°
2026-05-06 14:30 47.94425 9.79183 34796 ft 441 kts 152°
2026-05-06 14:30 47.89419 9.84456 34796 ft 441 kts 153°
2026-05-06 14:31 47.84442 9.89683 34809 ft 440 kts 153°
2026-05-06 14:31 47.79431 9.94933 34805 ft 440 kts 153°
2026-05-06 14:32 47.74423 10.00166 34809 ft 440 kts 153°
2026-05-06 14:32 47.69414 10.05391 34802 ft 440 kts 153°
2026-05-06 14:33 47.64407 10.10601 34809 ft 439 kts 153°
2026-05-06 14:33 47.59407 10.15788 34834 ft 439 kts 153°
2026-05-06 14:34 47.54396 10.20974 34831 ft 439 kts 153°
2026-05-06 14:34 47.50194 10.25316 34815 ft 440 kts 153°
2026-05-06 14:35 47.45176 10.30489 34845 ft 440 kts 153°
2026-05-06 14:35 47.40139 10.35668 34842 ft 442 kts 153°
2026-05-06 14:36 47.35086 10.40852 34831 ft 443 kts 153°
2026-05-06 14:36 47.30027 10.46030 34857 ft 443 kts 153°
2026-05-06 14:37 47.25002 10.51162 34836 ft 442 kts 153°
2026-05-06 14:37 47.19953 10.56307 34850 ft 440 kts 153°
2026-05-06 14:38 47.14918 10.61424 34861 ft 440 kts 153°
2026-05-06 14:38 47.09937 10.66696 34846 ft 447 kts 147°
2026-05-06 14:39 47.05287 10.72831 34842 ft 450 kts 146°
2026-05-06 14:39 47.00695 10.79052 34840 ft 450 kts 146°
2026-05-06 14:40 46.96077 10.85228 34869 ft 449 kts 146°
2026-05-06 14:40 46.91438 10.91356 34875 ft 449 kts 146°
2026-05-06 14:41 46.86785 10.97465 34856 ft 449 kts 147°
2026-05-06 14:41 46.82124 11.03568 34844 ft 450 kts 147°
2026-05-06 14:42 46.77464 11.09654 34876 ft 450 kts 147°
2026-05-06 14:42 46.72792 11.15742 34859 ft 450 kts 146°
2026-05-06 14:43 46.68119 11.21819 34884 ft 451 kts 146°
2026-05-06 14:43 46.63460 11.27861 34885 ft 452 kts 147°
2026-05-06 14:44 46.58751 11.33955 34880 ft 454 kts 146°
2026-05-06 14:45 46.51665 11.43099 34883 ft 454 kts 146°
2026-05-06 14:45 46.46937 11.49184 34873 ft 454 kts 146°
2026-05-06 14:46 46.42223 11.55238 34910 ft 452 kts 146°
2026-05-06 14:46 46.37511 11.61266 34912 ft 451 kts 146°
2026-05-06 14:47 46.32797 11.67285 34948 ft 452 kts 146°
2026-05-06 14:47 46.28069 11.73306 34959 ft 453 kts 146°
2026-05-06 14:48 46.23326 11.79335 34958 ft 453 kts 146°
2026-05-06 14:48 46.18584 11.85348 34963 ft 454 kts 146°
2026-05-06 14:49 46.13834 11.91358 34958 ft 454 kts 146°
2026-05-06 14:49 46.09072 11.97365 34963 ft 455 kts 146°
2026-05-06 14:50 46.04294 12.03381 34949 ft 456 kts 146°
2026-05-06 14:50 45.99518 12.09382 34899 ft 456 kts 147°
2026-05-06 14:51 45.94752 12.15353 34933 ft 454 kts 147°
2026-05-06 14:51 45.89981 12.21317 34922 ft 455 kts 147°
2026-05-06 14:52 45.85206 12.27269 34910 ft 455 kts 147°
2026-05-06 14:52 45.80431 12.33210 34901 ft 455 kts 147°
2026-05-06 14:53 45.75645 12.39150 34896 ft 455 kts 147°
2026-05-06 14:53 45.70862 12.45072 34900 ft 455 kts 147°
2026-05-06 14:54 45.66077 12.50984 34898 ft 455 kts 147°
2026-05-06 14:54 45.61284 12.56890 34897 ft 455 kts 147°
2026-05-06 14:55 45.56490 12.62786 34893 ft 455 kts 146°
2026-05-06 14:55 45.51714 12.68642 34898 ft 455 kts 146°
2026-05-06 14:56 45.46918 12.74512 34899 ft 455 kts 146°
2026-05-06 14:56 45.42116 12.80377 34897 ft 454 kts 146°
2026-05-06 14:57 45.37315 12.86227 34898 ft 454 kts 146°
2026-05-06 14:57 45.32508 12.92072 34899 ft 454 kts 146°
2026-05-06 14:58 45.27716 12.97910 34905 ft 456 kts 143°
2026-05-06 14:58 45.23643 13.04969 34921 ft 468 kts 130°
2026-05-06 14:59 45.20100 13.12744 34914 ft 470 kts 129°
2026-05-06 14:59 45.16554 13.20538 34925 ft 470 kts 129°
2026-05-06 15:00 45.12972 13.28292 34923 ft 471 kts 129°
2026-05-06 15:00 45.09359 13.36036 34929 ft 471 kts 129°
2026-05-06 15:01 45.05737 13.43766 34935 ft 471 kts 129°
2026-05-06 15:01 45.02113 13.51479 34940 ft 471 kts 129°
2026-05-06 15:02 44.98481 13.59191 34941 ft 471 kts 129°
2026-05-06 15:02 44.94845 13.66895 34949 ft 471 kts 129°
2026-05-06 15:03 44.91207 13.74577 34956 ft 471 kts 129°
2026-05-06 15:03 44.87563 13.82253 34968 ft 471 kts 129°
2026-05-06 15:04 44.83940 13.89863 34958 ft 470 kts 129°
2026-05-06 15:04 44.80292 13.97507 34966 ft 470 kts 129°
2026-05-06 15:05 44.76634 14.05151 34957 ft 470 kts 129°
2026-05-06 15:05 44.72972 14.12787 34943 ft 472 kts 131°
2026-05-06 15:06 44.69267 14.20478 34953 ft 479 kts 131°
2026-05-06 15:06 44.65508 14.28266 34953 ft 483 kts 131°
2026-05-06 15:07 44.61727 14.36088 34952 ft 485 kts 131°
2026-05-06 15:07 44.57928 14.43929 34952 ft 486 kts 131°
2026-05-06 15:08 44.54130 14.51743 34953 ft 485 kts 131°
2026-05-06 15:08 44.50330 14.59537 34950 ft 483 kts 131°
2026-05-06 15:09 44.46538 14.67293 34962 ft 482 kts 131°
2026-05-06 15:09 44.42752 14.75013 34969 ft 481 kts 131°
2026-05-06 15:10 44.38966 14.82714 34973 ft 481 kts 131°
2026-05-06 15:10 44.35172 14.90410 34974 ft 480 kts 131°
2026-05-06 15:11 44.31375 14.98096 34984 ft 480 kts 131°
2026-05-06 15:11 44.27578 15.05757 34982 ft 480 kts 130°
2026-05-06 15:12 44.23774 15.13415 34987 ft 480 kts 130°
2026-05-06 15:12 44.19965 15.21061 34988 ft 480 kts 130°
2026-05-06 15:13 44.16146 15.28706 34993 ft 481 kts 130°
2026-05-06 15:13 44.12319 15.36349 34993 ft 481 kts 130°
2026-05-06 15:14 44.08484 15.43988 34984 ft 482 kts 130°
2026-05-06 15:14 44.04643 15.51621 34994 ft 482 kts 130°
2026-05-06 15:15 44.00765 15.59155 34982 ft 480 kts 135°
2026-05-06 15:15 43.96017 15.65486 34989 ft 472 kts 144°
2026-05-06 15:16 43.91070 15.71509 34998 ft 473 kts 144°
2026-05-06 15:16 43.86136 15.77560 35003 ft 474 kts 144°
2026-05-06 15:17 43.81221 15.83650 34999 ft 474 kts 143°
2026-05-06 15:17 43.76312 15.89749 34993 ft 474 kts 143°
2026-05-06 15:18 43.71402 15.95840 34996 ft 474 kts 144°
2026-05-06 15:18 43.67327 16.00881 35011 ft 474 kts 144°
2026-05-06 15:19 43.62408 16.06950 35013 ft 474 kts 143°
2026-05-06 15:19 43.57487 16.13008 35008 ft 475 kts 143°
2026-05-06 15:20 43.52550 16.19072 35023 ft 475 kts 143°
2026-05-06 15:20 43.47607 16.25129 35008 ft 476 kts 143°
2026-05-06 15:21 43.42658 16.31182 35018 ft 476 kts 143°
2026-05-06 15:21 43.37703 16.37227 35022 ft 476 kts 143°
2026-05-06 15:22 43.32743 16.43264 35026 ft 476 kts 143°
2026-05-06 15:22 43.27810 16.49251 35035 ft 477 kts 143°
2026-05-06 15:23 43.22836 16.55278 35045 ft 477 kts 143°
2026-05-06 15:23 43.17853 16.61303 35049 ft 478 kts 143°
2026-05-06 15:24 43.12862 16.67324 35037 ft 478 kts 143°
2026-05-06 15:24 43.07862 16.73341 35045 ft 479 kts 143°
2026-05-06 15:25 43.02859 16.79348 35046 ft 479 kts 143°
2026-05-06 15:25 42.97853 16.85347 35045 ft 479 kts 143°
2026-05-06 15:26 42.92838 16.91340 35051 ft 479 kts 143°
2026-05-06 15:26 42.87815 16.97330 35044 ft 479 kts 143°
2026-05-06 15:27 42.82795 17.03306 35047 ft 479 kts 143°
2026-05-06 15:27 42.77763 17.09279 35047 ft 480 kts 143°
2026-05-06 15:28 42.72733 17.15237 35046 ft 480 kts 143°
2026-05-06 15:28 42.67695 17.21191 35046 ft 480 kts 143°
2026-05-06 15:29 42.62658 17.27132 35048 ft 479 kts 143°
2026-05-06 15:29 42.57621 17.33060 35046 ft 479 kts 143°
2026-05-06 15:30 42.52579 17.38979 35050 ft 479 kts 143°
2026-05-06 15:30 42.47531 17.44893 35046 ft 479 kts 143°
2026-05-06 15:31 42.42485 17.50790 35046 ft 479 kts 143°
2026-05-06 15:31 42.37437 17.56679 35046 ft 479 kts 143°
2026-05-06 15:32 42.29860 17.65490 35038 ft 479 kts 143°
2026-05-06 15:32 42.24806 17.71354 35034 ft 479 kts 143°
2026-05-06 15:33 42.19750 17.77207 35040 ft 479 kts 143°
2026-05-06 15:33 42.14731 17.83002 35036 ft 478 kts 143°
2026-05-06 15:34 42.09672 17.88832 35040 ft 478 kts 143°
2026-05-06 15:34 42.04614 17.94646 35037 ft 478 kts 143°
2026-05-06 15:35 41.99554 18.00453 35041 ft 478 kts 143°
2026-05-06 15:35 41.94490 18.06249 35046 ft 478 kts 143°
2026-05-06 15:36 41.89423 18.12038 35049 ft 478 kts 143°